Temp: 14.9°C   Baro: 1019.4mb
  Wind: 6.9mph   Dir: NNW (335°)
  Rain: 0.2mm (0.0mm/hr)
  Solar: 274W/m2  Hum: 67%
 
Bath Spa Weather Station Historical Data
Daily Summary for October 26, 2019 Units:  Metric    English   Both
Daily Weekly Monthly Yearly Custom
  High: Low: Average:
Temperature: 15.8 °C 5.9 °C 12.2 °C
Dew Point: 14.3 °C 5 °C 10.8 °C
Humidity: 94% 88% 92%
Wind Speed: 21.9km/h 0km/h 9.7km/h
Wind Gust: 45.1km/h - -
Wind- - WSW
Pressure: 1017.8 hPa 1002.9 hPa -
Precipitation: 9.65 mm    
Historical Graphs
 
 
Tabular Data for October 26, 2019
Time Temperature Dew Point Pressure Wind Wind Speed Wind Gust Humidity Rainfall Rate (Hourly) solar
00:04 15.7 °C 14.2 °C 1005.6 hPa SW 21.1 km/h 37 km/h 91% 0.25 mm 0 W/m2
00:09 15.7 °C 14.2 °C 1005.6 hPa SW 18.7 km/h 41.8 km/h 91% 0.51 mm 0 W/m2
00:14 15.7 °C 14.2 °C 1005.6 hPa SW 20.9 km/h 45.1 km/h 91% 0.51 mm 0 W/m2
00:19 15.7 °C 14.2 °C 1005.6 hPa SW 18.7 km/h 37 km/h 91% 0.51 mm 0 W/m2
00:24 15.7 °C 14.2 °C 1005.6 hPa SW 19.2 km/h 35.4 km/h 91% 0.51 mm 0 W/m2
00:29 15.7 °C 14.2 °C 1005.6 hPa SW 17.7 km/h 32.2 km/h 91% 0.51 mm 0 W/m2
00:34 15.7 °C 14.2 °C 1006 hPa SW 17.7 km/h 37 km/h 91% 0.51 mm 0 W/m2
00:39 15.7 °C 14.2 °C 1005.6 hPa SW 16.4 km/h 30.6 km/h 91% 0.51 mm 0 W/m2
00:44 15.7 °C 14.2 °C 1005.6 hPa SW 17.7 km/h 41.8 km/h 91% 0.51 mm 0 W/m2
00:49 15.7 °C 14.2 °C 1005.6 hPa SW 17.1 km/h 35.4 km/h 91% 0.51 mm 0 W/m2
00:54 15.6 °C 14.1 °C 1005.6 hPa SW 15.8 km/h 35.4 km/h 91% 0.25 mm 0 W/m2
00:59 15.7 °C 14.2 °C 1005.6 hPa SW 18.2 km/h 35.4 km/h 91% 0.25 mm 0 W/m2
01:04 15.7 °C 14.1 °C 1006 hPa SW 15.3 km/h 35.4 km/h 90.2% 0.25 mm 0 W/m2
01:09 15.7 °C 14.1 °C 1006 hPa SW 18.3 km/h 35.4 km/h 90% 0.25 mm 0 W/m2
01:14 15.7 °C 14.1 °C 1005.6 hPa SW 12.9 km/h 33.8 km/h 90% 0 mm 0 W/m2
01:19 15.7 °C 14.1 °C 1005.6 hPa SW 16.6 km/h 30.6 km/h 90% 0 mm 0 W/m2
01:24 15.7 °C 14.1 °C 1005.6 hPa SW 14.2 km/h 30.6 km/h 90% 0 mm 0 W/m2
01:29 15.7 °C 14.1 °C 1005.6 hPa SW 17.4 km/h 30.6 km/h 90% 0 mm 0 W/m2
01:34 15.7 °C 14.1 °C 1005.6 hPa SSW 14.8 km/h 33.8 km/h 90.2% 0 mm 0 W/m2
01:39 15.7 °C 14.2 °C 1005.6 hPa SW 15.4 km/h 33.8 km/h 90.3% 0 mm 0 W/m2
01:44 15.8 °C 14.2 °C 1005.6 hPa SW 15.3 km/h 43.5 km/h 90% 0 mm 0 W/m2
01:49 15.8 °C 14.2 °C 1005.6 hPa SSW 13.8 km/h 29 km/h 90% 0 mm 0 W/m2
01:54 15.8 °C 14.2 °C 1005.6 hPa SW 16.1 km/h 30.6 km/h 90% 0 mm 0 W/m2
01:59 15.8 °C 14.2 °C 1005.6 hPa SW 16.9 km/h 35.4 km/h 90% 0 mm 0 W/m2
02:04 15.8 °C 14.2 °C 1005.6 hPa SW 14.3 km/h 32.2 km/h 90% 0 mm 0 W/m2
02:09 15.7 °C 14.1 °C 1005.6 hPa SW 15.6 km/h 32.2 km/h 90% 0 mm 0 W/m2
02:14 15.7 °C 14.1 °C 1005.6 hPa SSW 12.1 km/h 29 km/h 90.2% 0 mm 0 W/m2
02:19 15.5 °C 14 °C 1005.6 hPa SW 15.1 km/h 37 km/h 91% 0 mm 0 W/m2
02:24 15.4 °C 13.9 °C 1005.6 hPa SW 15.9 km/h 32.2 km/h 91% 0.25 mm 0 W/m2
02:29 15.4 °C 13.9 °C 1005.6 hPa SW 13.7 km/h 33.8 km/h 91.3% 0.25 mm 0 W/m2
02:34 15.3 °C 14.1 °C 1005.6 hPa SW 15.3 km/h 27.4 km/h 92% 0.25 mm 0 W/m2
02:39 15.3 °C 14.1 °C 1005.6 hPa SW 17.1 km/h 32.2 km/h 92% 0.25 mm 0 W/m2
02:44 15.4 °C 14.1 °C 1005.6 hPa SW 15.4 km/h 35.4 km/h 92% 0.51 mm 0 W/m2
02:49 15.3 °C 14.1 °C 1005.6 hPa SW 14 km/h 30.6 km/h 92% 0.51 mm 0 W/m2
02:54 15.3 °C 14 °C 1005.3 hPa SSW 14.8 km/h 30.6 km/h 92% 0.51 mm 0 W/m2
02:59 15.3 °C 14 °C 1005.3 hPa SSW 11.3 km/h 30.6 km/h 92% 0.51 mm 0 W/m2
03:04 15.3 °C 14 °C 1005.3 hPa SW 14.8 km/h 30.6 km/h 92% 0.76 mm 0 W/m2
03:09 15.3 °C 14 °C 1005.3 hPa SW 14.5 km/h 30.6 km/h 92% 0.76 mm 0 W/m2
03:14 15.3 °C 14 °C 1005.3 hPa SW 16.3 km/h 33.8 km/h 92.1% 0.76 mm 0 W/m2
03:19 15.3 °C 14 °C 1005.3 hPa SW 14.5 km/h 30.6 km/h 92% 1.02 mm 0 W/m2
03:24 15.3 °C 14 °C 1005.3 hPa SW 17.4 km/h 38.6 km/h 92% 1.02 mm 0 W/m2
03:29 15.3 °C 14 °C 1005.3 hPa SW 14.2 km/h 33.8 km/h 92% 0.76 mm 0 W/m2
03:34 15.4 °C 14.1 °C 1005 hPa SW 21.9 km/h 33.8 km/h 92% 0.76 mm 0 W/m2
03:39 15.4 °C 14.1 °C 1005 hPa SSW 16.7 km/h 32.2 km/h 92% 0.76 mm 0 W/m2
03:44 15.4 °C 14.1 °C 1005 hPa SSW 15.3 km/h 37 km/h 92% 0.76 mm 0 W/m2
03:49 15.4 °C 14.1 °C 1005 hPa SW 13.4 km/h 37 km/h 92% 0.76 mm 0 W/m2
03:54 15.4 °C 14.1 °C 1005 hPa SW 16.7 km/h 33.8 km/h 92% 0.76 mm 0 W/m2
03:59 15.5 °C 14 °C 1005 hPa SW 19.3 km/h 38.6 km/h 91% 0.51 mm 0 W/m2
04:04 15.6 °C 14.1 °C 1005 hPa SW 17.1 km/h 33.8 km/h 91% 0.51 mm 0 W/m2
04:09 15.6 °C 14.1 °C 1004.6 hPa SW 12.9 km/h 29 km/h 91% 0.51 mm 0 W/m2
04:14 15.6 °C 14 °C 1005 hPa SW 13.7 km/h 29 km/h 90% 0.51 mm 0 W/m2
04:19 15.6 °C 14 °C 1004.6 hPa SW 14.3 km/h 25.7 km/h 90% 0.51 mm 0 W/m2
04:24 15.7 °C 14.1 °C 1005 hPa SW 16.6 km/h 32.2 km/h 90% 0.25 mm 0 W/m2
04:29 15.7 °C 13.9 °C 1005 hPa SW 10.3 km/h 32.2 km/h 89.1% 0.25 mm 0 W/m2
04:34 15.7 °C 13.9 °C 1004.6 hPa SW 14.3 km/h 33.8 km/h 89% 0.25 mm 0 W/m2
04:39 15.7 °C 13.9 °C 1004.6 hPa SSW 14.2 km/h 30.6 km/h 89% 0.25 mm 0 W/m2
04:44 15.7 °C 13.9 °C 1005 hPa SW 14 km/h 25.7 km/h 89% 0.25 mm 0 W/m2
04:49 15.7 °C 13.9 °C 1004.6 hPa SSW 15 km/h 35.4 km/h 89% 0 mm 0 W/m2
04:54 15.7 °C 13.9 °C 1004.6 hPa SW 18.2 km/h 41.8 km/h 89% 0 mm 0 W/m2
04:59 15.8 °C 14 °C 1005 hPa SSW 15.9 km/h 40.2 km/h 89% 0 mm 0 W/m2
05:04 15.8 °C 13.9 °C 1004.6 hPa SW 11.7 km/h 30.6 km/h 89% 0 mm 0 W/m2
05:09 15.7 °C 13.9 °C 1004.6 hPa SSW 14.2 km/h 27.4 km/h 89% 0 mm 0 W/m2
05:14 15.7 °C 13.9 °C 1004.6 hPa SSW 15 km/h 30.6 km/h 89% 0 mm 0 W/m2
05:19 15.7 °C 13.9 °C 1004.6 hPa SW 12.6 km/h 32.2 km/h 89% 0 mm 0 W/m2
05:24 15.7 °C 13.9 °C 1004.6 hPa SSW 14.6 km/h 27.4 km/h 89% 0 mm 0 W/m2
05:29 15.6 °C 13.8 °C 1004.6 hPa SSW 14 km/h 25.7 km/h 89% 0 mm 0 W/m2
05:34 15.7 °C 13.9 °C 1004.6 hPa SSW 13.7 km/h 33.8 km/h 89% 0 mm 0 W/m2
05:39 15.7 °C 13.9 °C 1004.6 hPa SSW 15.9 km/h 30.6 km/h 89% 0 mm 0 W/m2
05:44 15.7 °C 13.9 °C 1004.6 hPa SSW 9.7 km/h 32.2 km/h 89% 0 mm 0 W/m2
05:49 15.7 °C 13.9 °C 1004.6 hPa SSW 9.7 km/h 25.7 km/h 89% 0 mm 0 W/m2
05:54 15.7 °C 13.9 °C 1004.6 hPa SW 15.1 km/h 33.8 km/h 89% 0 mm 0 W/m2
05:59 15.8 °C 13.9 °C 1004.6 hPa SW 13.4 km/h 33.8 km/h 88.5% 0 mm 0 W/m2
06:04 15.8 °C 13.8 °C 1004.6 hPa SW 13 km/h 27.4 km/h 88% 0 mm 0 W/m2
06:09 15.7 °C 13.8 °C 1004.6 hPa SW 13.4 km/h 27.4 km/h 88.4% 0 mm 0 W/m2
06:14 15.7 °C 13.9 °C 1004.6 hPa SW 17.5 km/h 30.6 km/h 89% 0 mm 0 W/m2
06:19 15.7 °C 13.9 °C 1004.6 hPa SW 15.3 km/h 35.4 km/h 89% 0 mm 0 W/m2
06:24 15.7 °C 13.8 °C 1004.6 hPa SW 13.5 km/h 29 km/h 89% 0 mm 0 W/m2
06:29 15.6 °C 13.8 °C 1004.6 hPa SW 14 km/h 37 km/h 89% 0 mm 0 W/m2
06:34 15.6 °C 13.8 °C 1004.6 hPa SW 10 km/h 24.1 km/h 89% 0 mm 0 W/m2
06:39 15.6 °C 13.8 °C 1004.6 hPa SW 10.5 km/h 33.8 km/h 89% 0 mm 0 W/m2
06:44 15.6 °C 13.8 °C 1004.6 hPa SW 12.4 km/h 24.1 km/h 89% 0 mm 0 W/m2
06:49 15.6 °C 13.8 °C 1004.6 hPa SW 11.6 km/h 22.5 km/h 89% 0 mm 0 W/m2
06:54 15.7 °C 13.8 °C 1004.6 hPa SW 15.1 km/h 25.7 km/h 89% 0 mm 0 W/m2
06:59 15.7 °C 13.8 °C 1004.6 hPa SW 12.9 km/h 25.7 km/h 89% 0 mm 0 W/m2
07:04 15.7 °C 13.8 °C 1004.6 hPa SW 14.3 km/h 29 km/h 89% 0 mm 0 W/m2
07:09 15.7 °C 13.8 °C 1004.6 hPa SW 13.7 km/h 32.2 km/h 89% 0 mm 0 W/m2
07:14 15.6 °C 13.8 °C 1004.6 hPa SW 13.7 km/h 32.2 km/h 89% 0 mm 0 W/m2
07:19 15.6 °C 13.8 °C 1004.6 hPa SW 12.1 km/h 33.8 km/h 89% 0 mm 0 W/m2
07:24 15.6 °C 13.8 °C 1004.6 hPa SW 14.6 km/h 38.6 km/h 89% 0 mm 0 W/m2
07:29 15.5 °C 13.7 °C 1004.3 hPa SW 12.6 km/h 22.5 km/h 89% 0 mm 0 W/m2
07:34 15.4 °C 13.7 °C 1004.6 hPa SW 12.1 km/h 29 km/h 89.5% 0 mm 0 W/m2
07:39 15.4 °C 13.8 °C 1004.6 hPa SW 14.8 km/h 25.7 km/h 90% 0 mm 0 W/m2
07:44 15.5 °C 13.9 °C 1004.6 hPa SW 12.9 km/h 27.4 km/h 89.9% 0 mm 0 W/m2
07:49 15.4 °C 13.7 °C 1004.6 hPa SW 16.3 km/h 30.6 km/h 89.1% 0 mm 0 W/m2
07:54 15.6 °C 13.7 °C 1004.6 hPa SW 14.5 km/h 30.6 km/h 89% 0 mm 0 W/m2
07:59 15.6 °C 13.7 °C 1004.6 hPa SW 15.1 km/h 29 km/h 89% 0 mm 0 W/m2
08:04 15.6 °C 13.8 °C 1004.6 hPa SW 15 km/h 30.6 km/h 89% 0 mm 0 W/m2
08:09 15.6 °C 13.8 °C 1004.6 hPa SW 14 km/h 27.4 km/h 89% 0 mm 0 W/m2
08:14 15.6 °C 13.6 °C 1004.6 hPa SW 14 km/h 30.6 km/h 88% 0 mm 0 W/m2
08:19 15.6 °C 13.6 °C 1004.6 hPa SW 18.2 km/h 33.8 km/h 88% 0 mm 0 W/m2
08:24 15.6 °C 13.6 °C 1004.6 hPa SW 10.5 km/h 24.1 km/h 88% 0.25 mm 0 W/m2
08:29 15.6 °C 13.6 °C 1004.3 hPa SW 13.7 km/h 30.6 km/h 88% 0.25 mm 5 W/m2
08:34 15.4 °C 13.5 °C 1004.3 hPa SW 13.5 km/h 35.4 km/h 88.4% 0.25 mm 7 W/m2
08:39 15.3 °C 13.6 °C 1004.6 hPa SW 11.7 km/h 27.4 km/h 89% 0.25 mm 7 W/m2
08:44 15.3 °C 13.6 °C 1004.6 hPa SW 15.3 km/h 32.2 km/h 89% 0.25 mm 7 W/m2
08:49 15.3 °C 13.5 °C 1004.6 hPa SW 12.6 km/h 25.7 km/h 89% 0.25 mm 7 W/m2
08:54 15.3 °C 13.5 °C 1004.6 hPa SW 17.2 km/h 33.8 km/h 89% 0.25 mm 0 W/m2
08:59 15.3 °C 13.5 °C 1004.6 hPa SW 12.7 km/h 33.8 km/h 89% 0.25 mm 7 W/m2
09:04 15.3 °C 13.6 °C 1004.6 hPa SW 17.1 km/h 29 km/h 89% 0.25 mm 9 W/m2
09:09 15.4 °C 13.6 °C 1004.6 hPa SW 11.7 km/h 30.6 km/h 89% 0.25 mm 7 W/m2
09:14 15.3 °C 13.6 °C 1004.6 hPa SW 14.5 km/h 32.2 km/h 89% 0.51 mm 19 W/m2
09:19 15.3 °C 13.5 °C 1004.6 hPa SW 10.5 km/h 25.7 km/h 89% 0.51 mm 19 W/m2
09:24 15.2 °C 13.4 °C 1004.6 hPa SW 9.5 km/h 25.7 km/h 89.1% 0.51 mm 26 W/m2
09:29 15.2 °C 13.6 °C 1004.6 hPa SW 11.6 km/h 25.7 km/h 90% 0.51 mm 21 W/m2
09:34 15.1 °C 13.5 °C 1004.6 hPa SSW 10.8 km/h 22.5 km/h 90% 0.76 mm 16 W/m2
09:39 15.1 °C 13.6 °C 1004.6 hPa SW 10.9 km/h 22.5 km/h 90.6% 1.02 mm 19 W/m2
09:44 15.1 °C 13.6 °C 1004.3 hPa SSW 10.1 km/h 20.9 km/h 90.8% 1.02 mm 30 W/m2
09:49 15.1 °C 13.6 °C 1004.3 hPa SSW 11.7 km/h 20.9 km/h 91% 1.02 mm 33 W/m2
09:54 15.1 °C 13.6 °C 1004.3 hPa SSW 11.9 km/h 22.5 km/h 91% 1.27 mm 21 W/m2
09:59 15.1 °C 13.6 °C 1004.3 hPa SW 12.2 km/h 25.7 km/h 91% 1.27 mm 26 W/m2
10:04 15.2 °C 13.7 °C 1004.3 hPa SSW 14.2 km/h 35.4 km/h 91% 1.27 mm 32 W/m2
10:09 15.2 °C 13.7 °C 1004.3 hPa SW 16.6 km/h 33.8 km/h 91% 1.27 mm 35 W/m2
10:14 15.2 °C 13.7 °C 1003.9 hPa SW 13.8 km/h 30.6 km/h 91% 1.52 mm 30 W/m2
10:19 15.2 °C 13.7 °C 1003.9 hPa SW 12.9 km/h 32.2 km/h 91% 1.27 mm 37 W/m2
10:24 15.1 °C 13.6 °C 1003.9 hPa SW 12.1 km/h 27.4 km/h 91% 1.02 mm 51 W/m2
10:29 15.1 °C 13.6 °C 1003.9 hPa SW 14.2 km/h 25.7 km/h 91% 1.02 mm 63 W/m2
10:34 15.1 °C 13.6 °C 1003.9 hPa SW 14.6 km/h 27.4 km/h 91% 1.02 mm 79 W/m2
10:39 15 °C 13.5 °C 1003.9 hPa SSW 11.9 km/h 33.8 km/h 91% 1.02 mm 81 W/m2
10:44 14.9 °C 13.6 °C 1003.9 hPa SSW 14.5 km/h 33.8 km/h 91.9% 1.02 mm 70 W/m2
10:49 14.9 °C 13.7 °C 1003.9 hPa SW 13.5 km/h 30.6 km/h 92% 1.02 mm 54 W/m2
10:54 15 °C 13.7 °C 1003.9 hPa SSW 12.6 km/h 24.1 km/h 92% 1.27 mm 47 W/m2
10:59 15 °C 13.7 °C 1003.9 hPa SSW 12.1 km/h 24.1 km/h 92% 1.27 mm 35 W/m2
11:04 15 °C 13.7 °C 1003.9 hPa SW 16.9 km/h 29 km/h 92% 1.52 mm 23 W/m2
11:09 15 °C 13.7 °C 1003.9 hPa SSW 17.4 km/h 38.6 km/h 92% 1.52 mm 32 W/m2
11:14 15 °C 13.7 °C 1003.9 hPa SW 17.9 km/h 38.6 km/h 92% 1.52 mm 42 W/m2
11:19 14.9 °C 13.7 °C 1003.9 hPa SW 11.7 km/h 30.6 km/h 92% 1.78 mm 42 W/m2
11:24 14.9 °C 13.6 °C 1003.9 hPa SW 14.2 km/h 29 km/h 92% 2.03 mm 40 W/m2
11:29 14.9 °C 13.7 °C 1003.9 hPa SW 15.6 km/h 29 km/h 92% 2.03 mm 37 W/m2
11:34 15 °C 13.7 °C 1003.9 hPa SSW 13.2 km/h 29 km/h 92% 2.29 mm 37 W/m2
11:39 15 °C 13.7 °C 1003.6 hPa SSW 13.5 km/h 27.4 km/h 92% 2.29 mm 35 W/m2
11:44 15.1 °C 13.8 °C 1003.6 hPa SW 16.6 km/h 32.2 km/h 92% 2.03 mm 37 W/m2
11:49 15.1 °C 13.8 °C 1003.6 hPa SW 16.1 km/h 43.5 km/h 92% 2.29 mm 44 W/m2
11:54 15.1 °C 13.8 °C 1003.6 hPa SW 14.3 km/h 25.7 km/h 92% 2.03 mm 42 W/m2
11:59 15.1 °C 13.8 °C 1003.6 hPa SW 12.2 km/h 29 km/h 92% 2.29 mm 39 W/m2
12:04 15.1 °C 13.8 °C 1003.6 hPa SW 11.1 km/h 29 km/h 92% 2.29 mm 37 W/m2
12:09 15.1 °C 13.8 °C 1003.6 hPa SW 14.2 km/h 29 km/h 92% 2.03 mm 37 W/m2
12:14 15.2 °C 13.8 °C 1003.6 hPa SW 13.4 km/h 33.8 km/h 92% 2.03 mm 37 W/m2
12:19 15.2 °C 13.9 °C 1003.6 hPa SW 15.3 km/h 27.4 km/h 92% 1.78 mm 30 W/m2
12:24 15.2 °C 13.9 °C 1003.6 hPa SW 11.6 km/h 25.7 km/h 92% 1.78 mm 44 W/m2
12:29 15.2 °C 13.9 °C 1003.6 hPa SSW 11.7 km/h 27.4 km/h 92% 1.78 mm 39 W/m2
12:34 15.2 °C 13.9 °C 1003.6 hPa SSW 11.6 km/h 30.6 km/h 92% 1.52 mm 46 W/m2
12:39 15.2 °C 13.9 °C 1003.3 hPa SW 13.8 km/h 29 km/h 92% 1.52 mm 44 W/m2
12:44 15.3 °C 14 °C 1003.3 hPa SW 14.5 km/h 32.2 km/h 92% 1.52 mm 42 W/m2
12:49 15.3 °C 14 °C 1003.3 hPa SW 14.2 km/h 30.6 km/h 92% 1.78 mm 32 W/m2
12:54 15.3 °C 14 °C 1003.3 hPa SW 14.8 km/h 25.7 km/h 92% 1.78 mm 37 W/m2
12:59 15.3 °C 14 °C 1003.3 hPa SSW 10.6 km/h 25.7 km/h 92% 1.78 mm 28 W/m2
13:04 15.3 °C 14 °C 1003.3 hPa SW 16.3 km/h 33.8 km/h 92% 1.78 mm 32 W/m2
13:09 15.4 °C 14.1 °C 1003.3 hPa SW 11.1 km/h 33.8 km/h 92% 1.52 mm 26 W/m2
13:14 15.4 °C 14.1 °C 1003.3 hPa SW 10.3 km/h 19.3 km/h 92% 1.78 mm 28 W/m2
13:19 15.4 °C 14.1 °C 1003.3 hPa SW 17.1 km/h 33.8 km/h 92% 1.78 mm 28 W/m2
13:24 15.4 °C 14.1 °C 1003.3 hPa SW 15.8 km/h 33.8 km/h 92% 1.78 mm 33 W/m2
13:29 15.5 °C 14.2 °C 1003.3 hPa SW 10.5 km/h 30.6 km/h 92% 1.78 mm 21 W/m2
13:34 15.5 °C 14.2 °C 1003.3 hPa SW 17.1 km/h 32.2 km/h 92% 1.52 mm 30 W/m2
13:39 15.5 °C 14.2 °C 1002.9 hPa SW 10.6 km/h 25.7 km/h 92% 1.52 mm 35 W/m2
13:44 15.6 °C 14.2 °C 1003.3 hPa SW 14 km/h 24.1 km/h 92% 1.52 mm 32 W/m2
13:49 15.6 °C 14.3 °C 1003.3 hPa WSW 14.6 km/h 32.2 km/h 92% 1.52 mm 26 W/m2
13:54 15.6 °C 14.3 °C 1003.3 hPa SW 12.4 km/h 22.5 km/h 92% 1.27 mm 14 W/m2
13:59 15.5 °C 14.2 °C 1003.3 hPa WSW 15.4 km/h 30.6 km/h 92% 1.02 mm 16 W/m2
14:04 15.5 °C 14.2 °C 1003.6 hPa WSW 13.5 km/h 30.6 km/h 92% 1.02 mm 25 W/m2
14:09 15.4 °C 14.2 °C 1003.3 hPa WSW 9.3 km/h 22.5 km/h 92% 0.76 mm 40 W/m2
14:14 15.4 °C 14.2 °C 1003.3 hPa WSW 11.9 km/h 22.5 km/h 92.3% 0.51 mm 44 W/m2
14:19 15.4 °C 14.3 °C 1003.6 hPa SW 13.4 km/h 24.1 km/h 93% 0.51 mm 39 W/m2
14:24 15.4 °C 14.3 °C 1003.6 hPa WSW 10.6 km/h 24.1 km/h 93% 0.51 mm 39 W/m2
14:29 15.4 °C 14.3 °C 1003.6 hPa WSW 6.8 km/h 20.9 km/h 93% 0.25 mm 37 W/m2
14:34 14.9 °C 13.8 °C 1003.6 hPa NW 14 km/h 24.1 km/h 92.9% 0.51 mm 14 W/m2
14:39 13.6 °C 12.4 °C 1003.9 hPa NNW 14.5 km/h 27.4 km/h 92.5% 0.25 mm 18 W/m2
14:44 11.9 °C 10.6 °C 1003.9 hPa North 17.9 km/h 32.2 km/h 92% 0.51 mm 33 W/m2
14:49 10 °C 8.8 °C 1004.3 hPa NNW 13.5 km/h 29 km/h 92% 0.51 mm 32 W/m2
14:54 9.3 °C 8.1 °C 1004.6 hPa NNW 12.1 km/h 33.8 km/h 92% 0.51 mm 39 W/m2
14:59 8.7 °C 7.5 °C 1004.6 hPa North 13 km/h 33.8 km/h 92% 0.51 mm 40 W/m2
15:04 8.4 °C 7.2 °C 1005 hPa North 12.7 km/h 27.4 km/h 92% 0.51 mm 39 W/m2
15:09 8.2 °C 7 °C 1005.3 hPa North 7.1 km/h 25.7 km/h 92% 0.51 mm 35 W/m2
15:14 8.2 °C 6.9 °C 1005.3 hPa NNE 3.9 km/h 16.1 km/h 92% 0.51 mm 32 W/m2
15:19 8.2 °C 7 °C 1005.6 hPa NNW 5.3 km/h 16.1 km/h 92.4% 0.51 mm 30 W/m2
15:24 8.2 °C 7 °C 1005.6 hPa ESE 3.2 km/h 14.5 km/h 92.4% 0.51 mm 32 W/m2
15:29 7.9 °C 6.8 °C 1006 hPa NNW 6.1 km/h 19.3 km/h 92.3% 0.51 mm 28 W/m2
15:34 7.9 °C 6.8 °C 1006.3 hPa NNW 5.8 km/h 19.3 km/h 93% 0.51 mm 33 W/m2
15:39 7.9 °C 6.8 °C 1006.3 hPa NW 6.9 km/h 14.5 km/h 93% 0.51 mm 40 W/m2
15:44 7.8 °C 6.7 °C 1006.3 hPa NW 7.2 km/h 20.9 km/h 93% 0.51 mm 39 W/m2
15:49 7.8 °C 6.7 °C 1006.7 hPa NW 3.2 km/h 11.3 km/h 93% 0.51 mm 30 W/m2
15:54 7.8 °C 6.7 °C 1006.7 hPa NW 7.4 km/h 16.1 km/h 93% 0.25 mm 30 W/m2
15:59 7.8 °C 6.7 °C 1007 hPa NW 5.1 km/h 17.7 km/h 93% 0.25 mm 28 W/m2
16:04 7.7 °C 6.6 °C 1007 hPa NW 3.4 km/h 16.1 km/h 93% 0.25 mm 28 W/m2
16:09 7.7 °C 6.6 °C 1007.3 hPa NNW 3.5 km/h 14.5 km/h 93% 0.25 mm 23 W/m2
16:14 7.6 °C 6.5 °C 1007.3 hPa NW 4.3 km/h 11.3 km/h 93% 0.25 mm 25 W/m2
16:19 7.6 °C 6.5 °C 1007.7 hPa NNW 6.8 km/h 16.1 km/h 93% 0.25 mm 23 W/m2
16:24 7.6 °C 6.5 °C 1007.7 hPa NW 5.1 km/h 16.1 km/h 93% 0.51 mm 19 W/m2
16:29 7.6 °C 6.5 °C 1008 hPa West 4.5 km/h 12.9 km/h 93% 0.51 mm 19 W/m2
16:34 7.6 °C 6.5 °C 1008 hPa NW 3.7 km/h 16.1 km/h 93% 0.51 mm 25 W/m2
16:39 7.7 °C 6.6 °C 1008.4 hPa NW 1.4 km/h 6.4 km/h 93% 0.51 mm 25 W/m2
16:44 7.6 °C 6.5 °C 1008.4 hPa NW 1.4 km/h 8 km/h 93% 0.25 mm 18 W/m2
16:49 7.4 °C 6.3 °C 1008.7 hPa WNW 3.4 km/h 11.3 km/h 93% 0.25 mm 16 W/m2
16:54 7.3 °C 6.3 °C 1008.7 hPa WNW 3.5 km/h 8 km/h 93% 0.25 mm 18 W/m2
16:59 7.3 °C 6.2 °C 1008.7 hPa NW 3.9 km/h 11.3 km/h 93% 0.25 mm 11 W/m2
17:04 7.3 °C 6.2 °C 1009 hPa NW 4.8 km/h 11.3 km/h 93% 0.25 mm 14 W/m2
17:09 7.2 °C 6.2 °C 1009 hPa NW 3.1 km/h 11.3 km/h 93% 0.25 mm 18 W/m2
17:14 7.2 °C 6.1 °C 1009 hPa NNW 3.2 km/h 9.7 km/h 93% 0.25 mm 12 W/m2
17:19 7.2 °C 6.1 °C 1008.7 hPa North 2.7 km/h 9.7 km/h 93% 0.25 mm 14 W/m2
17:24 7.3 °C 6.2 °C 1009 hPa North 1.6 km/h 6.4 km/h 93% 0.25 mm 12 W/m2
17:29 7.3 °C 6.2 °C 1009.4 hPa NW 2.3 km/h 6.4 km/h 93.2% 0 mm 7 W/m2
17:34 7.3 °C 6.3 °C 1009.7 hPa NW 3.2 km/h 6.4 km/h 93.4% 0 mm 5 W/m2
17:39 7.3 °C 6.3 °C 1009.7 hPa WNW 2.6 km/h 9.7 km/h 93.7% 0 mm 5 W/m2
17:44 7.3 °C 6.3 °C 1010 hPa NW 2.7 km/h 4.8 km/h 93.6% 0 mm 0 W/m2
17:49 7.3 °C 6.4 °C 1010 hPa WNW 5.1 km/h 9.7 km/h 93.8% 0 mm 0 W/m2
17:54 7.2 °C 6.3 °C 1010.4 hPa WNW 5.8 km/h 12.9 km/h 93.6% 0 mm 0 W/m2
17:59 7.2 °C 6.2 °C 1010.4 hPa NW 4.2 km/h 14.5 km/h 93.2% 0 mm 0 W/m2
18:04 7.2 °C 6.1 °C 1010.4 hPa NW 2.9 km/h 12.9 km/h 93% 0 mm 0 W/m2
18:09 7.2 °C 6.1 °C 1010.4 hPa NNW 3.2 km/h 12.9 km/h 93% 0 mm 0 W/m2
18:14 7.2 °C 6.1 °C 1010.7 hPa NW 1.3 km/h 11.3 km/h 93% 0 mm 0 W/m2
18:19 7.1 °C 6 °C 1011.1 hPa WNW 5.1 km/h 12.9 km/h 93% 0 mm 0 W/m2
18:24 7.1 °C 6 °C 1010.7 hPa WNW 1 km/h 8 km/h 93% 0 mm 0 W/m2
18:29 7.1 °C 5.9 °C 1011.1 hPa WNW 1.1 km/h 4.8 km/h 93% 0 mm 0 W/m2
18:34 7 °C 5.9 °C 1011.1 hPa WNW 1 km/h 4.8 km/h 93% 0 mm 0 W/m2
18:39 6.9 °C 5.8 °C 1011.4 hPa WNW 2.7 km/h 9.7 km/h 93% 0 mm 0 W/m2
18:44 6.9 °C 5.8 °C 1011.7 hPa WNW 2.9 km/h 9.7 km/h 93% 0 mm 0 W/m2
18:49 6.9 °C 5.8 °C 1011.7 hPa WNW 1.8 km/h 8 km/h 93% 0 mm 0 W/m2
18:54 6.9 °C 5.8 °C 1011.7 hPa WNW 3.1 km/h 8 km/h 93% 0 mm 0 W/m2
18:59 6.9 °C 5.8 °C 1011.7 hPa WNW 1 km/h 6.4 km/h 93% 0 mm 0 W/m2
19:04 6.9 °C 5.8 °C 1012.1 hPa WNW 3.9 km/h 11.3 km/h 93% 0 mm 0 W/m2
19:09 6.9 °C 5.8 °C 1012.4 hPa WNW 1.9 km/h 9.7 km/h 93% 0 mm 0 W/m2
19:14 6.9 °C 5.8 °C 1012.4 hPa WNW 1 km/h 6.4 km/h 93% 0 mm 0 W/m2
19:19 6.9 °C 5.8 °C 1012.8 hPa WNW 0.3 km/h 4.8 km/h 93% 0 mm 0 W/m2
19:24 7 °C 5.9 °C 1012.8 hPa WNW 2.3 km/h 8 km/h 93% 0 mm 0 W/m2
19:29 6.9 °C 5.8 °C 1013.1 hPa WNW 1.8 km/h 8 km/h 93% 0 mm 0 W/m2
19:34 6.9 °C 5.8 °C 1013.1 hPa WNW 0.5 km/h 6.4 km/h 93% 0 mm 0 W/m2
19:39 6.9 °C 5.8 °C 1013.1 hPa Calm   1.6 km/h 93% 0 mm 0 W/m2
19:44 6.9 °C 5.8 °C 1013.4 hPa Calm     93% 0 mm 0 W/m2
19:49 6.9 °C 5.8 °C 1013.4 hPa Calm     93% 0 mm 0 W/m2
19:54 6.9 °C 5.8 °C 1013.4 hPa Calm     93% 0 mm 0 W/m2
19:59 6.8 °C 5.8 °C 1013.4 hPa Calm     93% 0 mm 0 W/m2
20:04 6.8 °C 5.8 °C 1013.4 hPa Calm     93% 0 mm 0 W/m2
20:09 6.9 °C 5.8 °C 1013.4 hPa Calm     93% 0 mm 0 W/m2
20:14 6.9 °C 5.8 °C 1013.4 hPa Calm     93% 0 mm 0 W/m2
20:19 6.9 °C 5.8 °C 1013.8 hPa Calm     93% 0 mm 0 W/m2
20:24 6.9 °C 5.8 °C 1014.1 hPa Calm     93% 0 mm 0 W/m2
20:29 6.8 °C 5.8 °C 1014.1 hPa Calm     93% 0 mm 0 W/m2
20:34 6.8 °C 5.7 °C 1014.1 hPa Calm     93% 0 mm 0 W/m2
20:39 6.8 °C 5.7 °C 1014.4 hPa Calm     93% 0 mm 0 W/m2
20:44 6.7 °C 5.6 °C 1014.4 hPa Calm     93% 0 mm 0 W/m2
20:49 6.7 °C 5.6 °C 1014.4 hPa Calm     93% 0 mm 0 W/m2
20:54 6.7 °C 5.6 °C 1014.4 hPa Calm     93% 0 mm 0 W/m2
20:59 6.7 °C 5.6 °C 1014.8 hPa Calm     93% 0 mm 0 W/m2
21:04 6.7 °C 5.6 °C 1014.8 hPa Calm     93% 0 mm 0 W/m2
21:09 6.7 °C 5.6 °C 1014.8 hPa Calm     93% 0 mm 0 W/m2
21:14 6.7 °C 5.6 °C 1015.1 hPa Calm     93% 0 mm 0 W/m2
21:19 6.7 °C 5.6 °C 1015.1 hPa Calm     93% 0 mm 0 W/m2
21:24 6.7 °C 5.6 °C 1015.5 hPa Calm     93% 0 mm 0 W/m2
21:29 6.7 °C 5.6 °C 1015.5 hPa Calm     93% 0 mm 0 W/m2
21:34 6.6 °C 5.4 °C 1015.8 hPa Calm     93% 0 mm 0 W/m2
21:39 6.5 °C 5.4 °C 1015.8 hPa Calm     93% 0 mm 0 W/m2
21:44 6.4 °C 5.4 °C 1016.1 hPa Calm     93% 0 mm 0 W/m2
21:49 6.4 °C 5.4 °C 1015.8 hPa Calm     93% 0 mm 0 W/m2
21:54 6.3 °C 5.3 °C 1016.1 hPa Calm     93% 0 mm 0 W/m2
21:59 6.3 °C 5.3 °C 1016.1 hPa Calm     93% 0 mm 0 W/m2
22:04 6.3 °C 5.3 °C 1016.1 hPa Calm     93.6% 0 mm 0 W/m2
22:09 6.2 °C 5.3 °C 1016.1 hPa Calm     94% 0 mm 0 W/m2
22:14 6.2 °C 5.3 °C 1016.5 hPa Calm     94% 0 mm 0 W/m2
22:19 6.1 °C 5.1 °C 1016.5 hPa Calm     93.2% 0 mm 0 W/m2
22:24 6.1 °C 5.1 °C 1016.5 hPa Calm     93.2% 0 mm 0 W/m2
22:29 6 °C 5.1 °C 1016.8 hPa Calm     93.9% 0 mm 0 W/m2
22:34 6 °C 5.1 °C 1016.8 hPa Calm     94% 0 mm 0 W/m2
22:39 5.9 °C 5.1 °C 1016.8 hPa Calm     94% 0 mm 0 W/m2
22:44 5.9 °C 5 °C 1016.8 hPa Calm     94% 0 mm 0 W/m2
22:49 5.9 °C 5 °C 1016.8 hPa Calm     94% 0 mm 0 W/m2
22:54 5.9 °C 5.1 °C 1016.8 hPa Calm     94% 0 mm 0 W/m2
22:59 6 °C 5.1 °C 1016.8 hPa Calm     94% 0 mm 0 W/m2
23:04 6.1 °C 5.2 °C 1016.8 hPa Calm     94% 0 mm 0 W/m2
23:09 6.2 °C 5.3 °C 1016.8 hPa Calm     94% 0 mm 0 W/m2
23:14 6.2 °C 5.3 °C 1017.2 hPa Calm     94% 0 mm 0 W/m2
23:19 6.2 °C 5.3 °C 1017.2 hPa Calm     94% 0 mm 0 W/m2
23:24 6.1 °C 5.2 °C 1017.2 hPa Calm     94% 0 mm 0 W/m2
23:29 6.1 °C 5.2 °C 1017.2 hPa Calm     94% 0 mm 0 W/m2
23:34 6.1 °C 5.2 °C 1017.5 hPa Calm     94% 0 mm 0 W/m2
23:39 6 °C 5.1 °C 1017.5 hPa Calm     94% 0 mm 0 W/m2
23:44 6 °C 5.1 °C 1017.5 hPa Calm     94% 0 mm 0 W/m2
23:49 6 °C 5.1 °C 1017.8 hPa Calm     94% 0 mm 0 W/m2
23:54 5.9 °C 5 °C 1017.8 hPa Calm     94% 0 mm 0 W/m2
23:59 5.9 °C 5 °C 1017.8 hPa Calm     94% 0 mm 0 W/m2
Bath Spa Weather
Compliments of Weather Underground - 2 mb